This is the latest recevied weather packets stored in our database for station/object SQ2CDE-4. If no packets are shown the sender has not sent any weather packets the latest 10 day(s).
| Time | Temp. | Humidity | Pressure | Rain* | Wind** | Luminosity | Snow |
|---|---|---|---|---|---|---|---|
| 1777689508 | 7.22° C | 61% | 1023 hPa | - | - | - | - |
| 1777688905 | 8.89° C | 53% | 1023 hPa | - | - | - | - |
| 1777688302 | 8.89° C | 53% | 1023 hPa | - | - | - | - |
| 1777673834 | 8.89° C | 76% | 1024 hPa | - | - | - | - |
| 1777672628 | 8.89° C | 76% | 1024 hPa | - | - | - | - |
| 1777672025 | 8.89° C | 76% | 1024 hPa | - | - | - | - |
| 1777670819 | 10° C | 76% | 1024 hPa | - | - | - | - |
| 1777670216 | 10° C | 76% | 1024 hPa | - | - | - | - |
| 1777669613 | 10° C | 76% | 1024 hPa | - | - | - | - |
| 1777669010 | 10° C | 76% | 1024 hPa | - | - | - | - |
| 1777668407 | 10° C | 76% | 1024 hPa | - | - | - | - |
| 1777667804 | 10° C | 76% | 1024 hPa | - | - | - | - |
| 1777667201 | 11.11° C | 66% | 1025 hPa | - | - | - | - |
| 1777666597 | 11.11° C | 66% | 1025 hPa | - | - | - | - |
| 1777665994 | 11.11° C | 66% | 1025 hPa | - | - | - | - |
| 1777650133 | 20° C | 37% | 1024 hPa | - | - | - | - |
| 1777643896 | 18.89° C | 40% | 1025 hPa | - | - | - | - |
| 1777643293 | 18.89° C | 40% | 1025 hPa | - | - | - | - |
| 1777642690 | 18.89° C | 40% | 1025 hPa | - | - | - | - |
| 1777642085 | 20° C | 40% | 1026 hPa | - | - | - | - |
| 1777641483 | 20° C | 40% | 1026 hPa | - | - | - | - |
| 1777639673 | 22.22° C | 35% | 1026 hPa | - | - | - | - |
| 1777638467 | 22.22° C | 31% | 1026 hPa | - | - | - | - |
| 1777637864 | 22.22° C | 31% | 1026 hPa | - | - | - | - |
| 1777637261 | 22.22° C | 31% | 1026 hPa | - | - | - | - |
* Rain since midnight (hover to see other rain measurements)
** Current wind speed in m/s (hover to see current wind gust speed)